Location: Oshawa
(43.9000°N, 78.8670°W)
Time: 09:25:46
(UTC-04:00)

Courier 1B - All Passes

Search period start: 20 June 2018 00:00
Search period end: 30 June 2018 00:00
Orbit: 962 x 1209 km, 28.3° (Epoch: 19 June)

Date Brightness Start Highest point End Pass type
(mag) Time Alt. Az. Time Alt. Az. Time Alt. Az.
20 Jun - 01:04:59 10° SW 01:10:05 21° S 01:14:59 10° SE night (unlit)
20 Jun - 02:58:26 10° SW 03:03:06 19° S 03:07:37 10° SSE visible
20 Jun - 22:21:32 10° S 22:23:32 11° SSE 22:25:32 10° SE visible
21 Jun - 00:11:29 10° SW 00:16:32 20° S 00:21:23 10° SE visible
21 Jun - 02:04:32 10° SW 02:09:35 21° S 02:14:28 10° SE visible
21 Jun - 03:59:34 10° SW 04:02:27 13° SSW 04:05:17 10° S visible
21 Jun - 23:18:07 10° SSW 23:22:58 19° SSE 23:27:38 10° SE visible
22 Jun - 01:10:43 10° SW 01:16:03 22° S 01:21:10 10° SE visible
22 Jun - 03:05:02 10° SW 03:09:01 16° SSW 03:12:52 10° SSE visible
22 Jun - 22:24:57 10° SSW 22:29:23 17° SSE 22:33:42 10° SE visible
23 Jun - 00:16:59 10° SW 00:22:29 23° S 00:27:45 10° SE visible
23 Jun - 02:10:50 10° SW 02:15:31 19° SSW 02:20:03 10° SSE night (unlit)
23 Jun - 21:32:05 10° S 21:35:48 14° SSE 21:39:26 10° SE visible
23 Jun - 23:23:21 10° SW 23:28:53 22° S 23:34:12 10° SE visible
24 Jun - 01:16:47 10° SW 01:21:59 21° S 01:26:59 10° SE visible
24 Jun - 03:12:44 10° SW 03:14:50 11° SSW 03:16:55 10° S night (unlit)
24 Jun - 20:39:56 10° S 20:42:13 11° SSE 20:44:30 10° SE daylight
24 Jun - 22:29:50 10° SW 22:35:16 21° S 22:40:31 10° SE visible
25 Jun - 00:22:52 10° SW 00:28:25 23° S 00:33:46 10° SE visible
25 Jun - 02:17:41 10° SW 02:21:23 15° SSW 02:24:59 10° SSE night (unlit)
25 Jun - 21:36:30 10° SSW 21:41:39 19° SSE 21:46:40 10° SE visible
25 Jun - 23:29:02 10° SW 23:34:49 24° S 23:40:23 10° SE visible
26 Jun - 01:23:14 10° SW 01:27:52 18° SSW 01:32:21 10° SSE visible
26 Jun - 20:43:24 10° SSW 20:48:01 17° SSE 20:52:35 10° SE daylight
26 Jun - 22:35:19 10° SW 22:41:11 24° S 22:46:51 10° SE visible
27 Jun - 00:29:04 10° WSW 00:34:20 20° SSW 00:39:24 10° SSE visible
27 Jun - 19:50:39 10° S 19:54:25 14° SSE 19:58:10 10° SE daylight
27 Jun - 21:41:43 10° SW 21:47:31 23° S 21:53:12 10° SE visible
27 Jun - 23:35:03 10° SW 23:40:44 23° S 23:46:13 10° SE visible
28 Jun - 01:30:27 10° SW 01:33:41 13° SSW 01:36:51 10° S visible
28 Jun - 18:58:47 10° S 19:00:50 11° SSE 19:02:54 10° SE daylight
28 Jun - 20:48:17 10° SW 20:53:52 21° SSE 20:59:23 10° ESE daylight
28 Jun - 22:41:09 10° SW 22:47:05 24° S 22:52:51 10° SE visible
29 Jun - 00:35:44 10° SW 00:40:10 16° SSW 00:44:28 10° SSE visible
29 Jun - 19:55:02 10° SSW 20:00:13 19° SSE 20:05:23 10° ESE daylight
29 Jun - 21:47:23 10° SW 21:53:26 25° S 21:59:21 10° SE visible
29 Jun - 23:41:26 10° WSW 23:46:35 19° SSW 23:51:37 10° SSE visible
